Location: Mercogliano
(40.9167°N, 14.7333°E)
Time: 08:03:46
(UTC+00:00)

CZ-2C R/B - Pass Details

Date: 18 January 2021
Orbit: 785 x 870 km, 98.2° (Epoch: 08 March)

Event Time Altitude Azimuth Distance (km) Brightness Sun altitude
Exits shadow 18:23:54 63° 23° (NNE) 955 2.7 -26.6°
Maximum altitude 18:24:51 85° 102° (ESE) 869 2.6 -26.8°
Drops below altitude 10° 18:30:27 10° 193° (SSW) 2,503 5.3 -27.8°
Sets 18:32:50 0° 193° (SSW) 3,440 6.1 -28.3°
